Regional Weather Roundup
Issued by NWS

Home | Current Version | Previous Version | Graphics & Text | Print | Product List | Glossary On
Versions: 1 2 3 4 5 6 7 8 9 10 11 12 13 14 15 16 17 18 19 20 21 22 23 24 25 26 27 28 29 30 31 32 33 34 35 36 37 38 39 40 41 42 43 44 45 46 47 48 49 50
000
ASUS43 KOAX 231310
RWRNE

WEATHER ROUNDUP FOR NEBRASKA
NATIONAL WEATHER SERVICE OMAHA NE
800 AM CDT TUE MAY 23 2017

NOTES: SATELLITE DATA IS BEING USED TO AUGMENT CLOUD COVER ABOVE
       12000 FEET.
       "FAIR" INDICATES FEW OR NO CLOUDS BELOW 12,000 FEET WITH NO
       SIGNIFICANT WEATHER AND/OR OBSTRUCTIONS TO VISIBILITY.

  * THESE STATIONS DO NOT REPORT WEATHER SUCH AS RAIN...SNOW OR FOG.

NEZ001>004-019>022-054>056-231400-
NEBRASKA PANHANDLE

CITY           SKY/WX    TMP DP  RH WIND       PRES   REMARKS
SCOTTSBLUFF    CLOUDY    42  38  85 W8        30.17R
ALLIANCE       CLOUDY    44  39  82 NW15      30.12S
CHADRON        CLOUDY    45  39  79 NW10      30.15R
GORDON         CLOUDY    47  40  78 NW10      30.11R
KIMBALL        MOSUNNY   40  37  89 NW12      30.19R WCI  32
SIDNEY         CLOUDY    43  40  89 NW14      30.16R
$$

NEZ057>060-069>072-079>082-231400-
SOUTHWEST NEBRASKA

CITY           SKY/WX    TMP DP  RH WIND       PRES   REMARKS
NORTH PLATTE   CLOUDY    47  44  90 W9        30.06S
IMPERIAL       CLOUDY    46  39  76 NW15      30.10S
LEXINGTON      CLOUDY    46  43  87 NW13      30.03F
MCCOOK         CLOUDY    47  43  86 NW14      30.06F
OGALLALA       CLOUDY    47  40  78 NW17      30.11R
$$

NEZ005>010-023>029-035>040-094-231400-
NORTH CENTRAL NEBRASKA

CITY           SKY/WX    TMP DP  RH WIND       PRES   REMARKS
VALENTINE      SUNNY     50  39  66 N14       30.05R
AINSWORTH      CLOUDY    48  41  76 N21G26    30.03R
BROKEN BOW     CLOUDY    50  43  77 NW17      29.99F
O`NEILL        CLOUDY    50  43  76 N18G25    29.97R
ORD            CLOUDY    50  42  74 NW10      29.96S
THEDFORD       CLOUDY    49  44  81 NW16      30.05R
$$

NEZ041-046>049-061>064-073>077-083>087-231400-
SOUTH CENTRAL NEBRASKA

CITY           SKY/WX    TMP DP  RH WIND       PRES   REMARKS
GRAND ISLAND   CLOUDY    48  45  89 W9        29.98F
AURORA         CLOUDY    48  44  87 NW12      29.97S
HASTINGS       CLOUDY    49  44  83 NW9       29.99F
HEBRON         SUNNY     52  47  82 NW8       29.97S
HOLDREGE       CLOUDY    47  43  87 NW10      30.01F
KEARNEY *      CLOUDY    48  43  81 NW12      30.00S
YORK           PTSUNNY   48  45  87 NW12      29.96F
$$

NEZ011>018-030>034-042>045-231400-
NORTHEAST NEBRASKA

CITY           SKY/WX    TMP DP  RH WIND       PRES   REMARKS
NORFOLK        CLOUDY    48  43  82 W8        29.93S
ALBION         CLOUDY    49  44  83 CALM      29.94F
BLAIR          SUNNY     50  44  80 NW8       29.91F
FREMONT        PTSUNNY   50  44  80 NW7       29.93S
TEKAMAH        CLOUDY    51  44  77 NW10      29.91S
WAYNE          CLOUDY    48  48  99 NW10      29.93S
$$

NEZ050>053-065>068-078-088>093-231400-
SOUTHEAST NEBRASKA

CITY           SKY/WX    TMP DP  RH WIND       PRES   REMARKS
LINCOLN        SUNNY     53  45  74 NW9       29.95S
OMAHA EPPLEY   PTSUNNY   53  43  68 NW12      29.92R
BEATRICE       SUNNY     53  48  84 NW13      29.95S
FALLS CITY     SUNNY     54  47  77 NW8       29.91S
NEBRASKA CITY  SUNNY     52  43  72 N13G18    29.92S
PLATTSMOUTH    SUNNY     52  43  72 NW12      29.92S
$$

NEZ044-045-051>053-067-231400-
OMAHA AREA

CITY           SKY/WX    TMP DP  RH WIND       PRES   REMARKS
OMAHA EPPLEY   PTSUNNY   53  43  68 NW12      29.92R
BLAIR          SUNNY     50  44  80 NW8       29.91F
FREMONT        PTSUNNY   50  44  80 NW7       29.93S
MILLARD        SUNNY     54  46  72 N9        29.93S
OFFUTT AFB     SUNNY     53  43  70 NW13      29.91R
PLATTSMOUTH    SUNNY     52  43  72 NW12      29.92S
WAHOO          FAIR      50  43  76 NW6       29.93F
$$



USA.gov is the U.S. government's official web portal to all federal, state and local government web resources and services.